Weather in Taxiatosh

Uzbekistan     42°20′01″N   59°34′31″E
temp.,
°C
wind,
m/s
gust,
m/s
humid.,
%
clouds,
%
prec.,
mm/h
press.,
hPa
HPBL,
m
16 june, wed
wed1623:00+29ne713190 0.0 1010361
02:00+27ne511240 0.0 1010227
05:00+25ene47255 0.0 101097
08:00+30ne57191 0.0 1012340
11:00+34ene66140 0.0 10122896
14:00+36ne56120 0.0 10113541
17:00+36ne67111 0.0 10103889
20:00+32nne913183 0.0 1010598
17 june, thu
thu1723:00+29nne814260 0.0 1011414
02:00+27nne513310 0.0 1010280
05:00+26ne410310 0.0 1010177
08:00+30ne58210 0.0 1010324
11:00+36ene55110 0.0 10102908
14:00+38ene44100 0.0 10093182
17:00+38ne4590 0.0 10083300
20:00+35nne58130 0.0 1008236
18 june, fri
fri1823:00+30nne612210 0.0 1009321
02:00+27nne48260 0.0 1008148
05:00+26ne34260 0.0 100847
08:00+31ne462029 0.0 1009260
11:00+37ne451391 0.0 10093061
14:00+39ne441196 0.0 10093811
17:00+39nne34105 0.0 10084283
20:00+36nne610125 0.0 1008318
19 june, sat
sat1923:00+32nne48195 0.0 1010139
02:00+29n512278 0.0 1010300
05:00+27n353482 0.0 101188
08:00+30n463274 0.0 1012302
11:00+35n78205 0.0 10131973
14:00+36nne87175 0.0 10123092
17:00+35n108180 0.0 10132439
20:00+28n1012240 0.0 10151010
20 june, sun
sun2023:00+23n813350 0.0 1017417
02:00+24ne713190 0.0 1016438
05:00+22ene612190 0.0 1018435
08:00+24ene79180 0.0 1019735
11:00+28ne77130 0.0 10191853
14:00+30ne77100 0.0 10182071
17:00+31ne77100 0.0 10172272
20:00+26n911190 0.0 1017626